Regional Weather Roundup
Issued by NWS Cleveland, OH

Home | Current Version | Previous Version | Text Only | Print | Product List | Glossary On
Versions: 1 2 3 4 5 6 7 8 9 10 11 12 13 14 15 16 17 18 19 20 21 22 23 24 25 26 27 28 29 30 31 32 33 34 35 36 37 38 39 40 41 42 43 44 45 46 47 48 49 50
000
ASUS41 KCLE 221010
RWRCLE
OHIO REGIONAL WEATHER ROUNDUP
NATIONAL WEATHER SERVICE CLEVELAND, OH
500 AM EST SAT NOV 22 2014

NOTE: "FAIR" INDICATES FEW OR NO CLOUDS BELOW 12,000 FEET WITH NO
SIGNIFICANT WEATHER AND/OR OBSTRUCTIONS TO VISIBILITY.

OHZ001>008-015>018-024>027-034-035-043-044-221100-
   NORTHWEST OHIO

CITY           SKY/WX    TMP DP  RH WIND       PRES   REMARKS
DEFIANCE       MIX PCPN  31  20  63 S9        30.21F WCI  23
FINDLAY        CLOUDY    32  20  61 S9        30.22F WCI  24
TOLEDO EXPRESS CLOUDY    25  16  68 S5        30.21F WCI  19
TOLEDO EXEC    CLOUDY    29  16  58 S9        30.23F WCI  20
LIMA           CLOUDY    34  19  54 S13       30.23F WCI  25
$$

OHZ009>014-019>023-028>033-038-089-221100-
   NORTHEAST OHIO

CITY           SKY/WX    TMP DP  RH WIND       PRES   REMARKS
CLE-HOPKINS    PTCLDY    27  10  49 S9        30.29F WCI  18
CLE-LAKEFRONT  MOCLDY    25  10  53 S20G30    30.25F WCI  11
CUY CO. ARPT   NOT AVBL
LORAIN-ELYRIA  MOCLDY    24  11  57 S13       30.27F WCI  12
ASHTABULA      PTCLDY    19   8  62 S9        30.29F WCI   8
AKRON-CANTON   PTCLDY    21   9  59 S13       30.29F WCI   9
WOOSTER        CLOUDY   N/A N/A N/A S9        30.29F
MANSFIELD      CLOUDY    28  13  53 S12       30.26F WCI  18
YOUNGSTOWN     CLOUDY    22   9  57 S10       30.30F WCI  11
$$

OHZ042-051>053-060>062-070>072-077>081-221100-
  SOUTHWEST OHIO

CITY           SKY/WX    TMP DP  RH WIND       PRES   REMARKS
CINC-COVINGTON LGT RAIN  33  24  69 S6        30.30F WCI  28
CINC-LUNKEN    MIX PCPN  31  23  72 S3        30.34F
HAMILTON       CLOUDY    31  25  78 SE3       30.32F
DAYTON         FRZ DRZL  32  19  58 S13       30.27F WCI  22
WRIGHT-PAT AFB FRZ RAIN  32  19  59 S6        30.29F WCI  26
DAYTON GENERAL MIX PCPN  32  22  66 S10       30.29F WCI  24
WILMINGTON     CLOUDY    33  19  56 S10       30.30F WCI  25
$$

OHZ036-037-039>041-045>050-054>059-063>069-073>076-082>088-221100-
  CENTRAL AND SOUTHEAST OHIO

CITY           SKY/WX    TMP DP  RH WIND       PRES   REMARKS
COLUMBUS       CLOUDY    28  11  48 SE6       30.32F WCI  22
OSU AIRPORT    MIX PCPN  27  12  53 S5        30.31F WCI  22
BOLTON FIELD   MIX PCPN  26  17  68 S3        30.32F
RICKENBACK AFB CLOUDY    23  15  73 CALM      30.32F
NEWARK         CLOUDY    20  15  81 CALM      30.33F
MARION         CLOUDY    28  13  53 S13       30.27F WCI  17
LANCASTER      CLOUDY    26  13  57 SE8       30.33F WCI  18
ZANESVILLE     CLOUDY    22  12  65 SE3       30.34F
NEW PHILLY     PTCLDY    17  11  77 S3        30.35F
$$


USA.gov is the U.S. government's official web portal to all federal, state and local government web resources and services.